Stündliche Wetter Dabki

Heute, 31 Oktober, Samstag

Zeit Temperatur Niederschläge Wind Luftdruck Luftfeuchtigkeit
00:00 +6°C° 0 mm 0 m/S 752 mmHg 93%
01:00 +7°C° 0 mm 1 m/S 752 mmHg 93%
02:00 +7°C° 0 mm 1 m/S 753 mmHg 93%
03:00 +6°C° 0 mm 1 m/S 753 mmHg 92%
04:00 +6°C° 0 mm 1 m/S 753 mmHg 91%
05:00 +6°C° 0 mm 1 m/S 754 mmHg 91%
06:00 +6°C° 0 mm 1 m/S 754 mmHg 91%
07:00 +5°C° 0 mm 0 m/S 754 mmHg 92%
08:00 +7°C° 0 mm 1 m/S 755 mmHg 87%
09:00 +9°C° 0 mm 1 m/S 755 mmHg 82%
10:00 +10°C° 0 mm 1 m/S 756 mmHg 77%
11:00 +11°C° 0 mm 1 m/S 756 mmHg 73%
12:00 +11°C° 0 mm 1 m/S 756 mmHg 69%
13:00 +12°C° 0 mm 1 m/S 756 mmHg 65%
14:00 +11°C° 0 mm 1 m/S 756 mmHg 69%
15:00 +11°C° 0 mm 1 m/S 755 mmHg 73%
16:00 +9°C° 0 mm 2 m/S 755 mmHg 76%
17:00 +8°C° 0 mm 2 m/S 755 mmHg 80%
18:00 +8°C° 0 mm 2 m/S 755 mmHg 83%
19:00 +7°C° 0 mm 2 m/S 755 mmHg 86%
20:00 +7°C° 0 mm 2 m/S 755 mmHg 87%
21:00 +6°C° 0 mm 2 m/S 755 mmHg 88%
22:00 +6°C° 0 mm 2 m/S 755 mmHg 89%
23:00 +5°C° 0 mm 3 m/S 755 mmHg 90%

Morgen, 1 November, Sonntag

Zeit Temperatur Niederschläge Wind Luftdruck Luftfeuchtigkeit
00:00 +5°C° 0 mm 3 m/S 755 mmHg 90%
01:00 +4°C° 0 mm 3 m/S 755 mmHg 91%
02:00 +4°C° 0 mm 3 m/S 754 mmHg 90%
03:00 +4°C° 0 mm 3 m/S 753 mmHg 89%
04:00 +4°C° 0 mm 3 m/S 753 mmHg 88%
05:00 +4°C° 0 mm 4 m/S 753 mmHg 87%
06:00 +4°C° 0 mm 4 m/S 752 mmHg 86%
07:00 +4°C° 0 mm 4 m/S 752 mmHg 85%
08:00 +5°C° 0 mm 4 m/S 752 mmHg 80%
09:00 +6°C° 0 mm 4 m/S 751 mmHg 75%
10:00 +7°C° 0 mm 4 m/S 751 mmHg 70%
11:00 +8°C° 0 mm 4 m/S 751 mmHg 69%
12:00 +10°C° 0 mm 4 m/S 750 mmHg 69%
13:00 +11°C° 0 mm 4 m/S 750 mmHg 69%
14:00 +10°C° 0 mm 4 m/S 749 mmHg 73%
15:00 +10°C° 0 mm 4 m/S 749 mmHg 77%
16:00 +10°C° 0 mm 4 m/S 748 mmHg 82%
17:00 +10°C° 0.2 mm 4 m/S 748 mmHg 85%
18:00 +10°C° 0.2 mm 4 m/S 747 mmHg 89%
19:00 +10°C° 0.2 mm 4 m/S 747 mmHg 92%
20:00 +10°C° 0.5 mm 4 m/S 747 mmHg 94%
21:00 +10°C° 0.5 mm 4 m/S 746 mmHg 95%
22:00 +10°C° 0.5 mm 4 m/S 746 mmHg 97%
23:00 +10°C° 0.1 mm 4 m/S 746 mmHg 97%

übermorgen, 2 November, Montag

Zeit Temperatur Niederschläge Wind Luftdruck Luftfeuchtigkeit
00:00 +11°C° 0.1 mm 4 m/S 746 mmHg 96%
01:00 +11°C° 0.1 mm 4 m/S 745 mmHg 96%
02:00 +11°C° 0.2 mm 4 m/S 745 mmHg 96%
03:00 +11°C° 0.2 mm 4 m/S 745 mmHg 96%
04:00 +11°C° 0.2 mm 3 m/S 745 mmHg 96%
05:00 +11°C° 0 mm 3 m/S 746 mmHg 95%
06:00 +11°C° 0 mm 3 m/S 746 mmHg 95%
07:00 +11°C° 0 mm 3 m/S 746 mmHg 95%
08:00 +11°C° 0 mm 3 m/S 746 mmHg 90%
09:00 +12°C° 0 mm 3 m/S 747 mmHg 85%
10:00 +12°C° 0 mm 3 m/S 747 mmHg 81%
11:00 +12°C° 0 mm 3 m/S 747 mmHg 82%
12:00 +12°C° 0 mm 3 m/S 747 mmHg 83%
13:00 +12°C° 0 mm 3 m/S 747 mmHg 84%
14:00 +12°C° 0 mm 3 m/S 747 mmHg 87%
15:00 +12°C° 0 mm 3 m/S 747 mmHg 89%
16:00 +12°C° 0 mm 3 m/S 747 mmHg 92%
17:00 +13°C° 0 mm 3 m/S 748 mmHg 93%
18:00 +13°C° 0 mm 3 m/S 748 mmHg 95%
19:00 +13°C° 0 mm 4 m/S 748 mmHg 96%
20:00 +14°C° 0 mm 4 m/S 748 mmHg 96%
21:00 +14°C° 0 mm 4 m/S 748 mmHg 96%
22:00 +14°C° 0 mm 4 m/S 748 mmHg 95%
23:00 +14°C° 0 mm 4 m/S 748 mmHg 94%

3 November, Dienstag

Zeit Temperatur Niederschläge Wind Luftdruck Luftfeuchtigkeit
00:00 +14°C° 0 mm 4 m/S 748 mmHg 93%
01:00 +14°C° 0 mm 4 m/S 748 mmHg 91%
02:00 +14°C° 0 mm 4 m/S 748 mmHg 92%
03:00 +14°C° 0 mm 4 m/S 749 mmHg 92%
04:00 +14°C° 0 mm 3 m/S 749 mmHg 93%
05:00 +14°C° 0 mm 3 m/S 749 mmHg 92%
06:00 +14°C° 0 mm 3 m/S 750 mmHg 90%
07:00 +14°C° 0 mm 3 m/S 750 mmHg 89%
08:00 +13°C° 0 mm 4 m/S 751 mmHg 82%
09:00 +13°C° 0 mm 4 m/S 752 mmHg 75%
10:00 +13°C° 0 mm 5 m/S 752 mmHg 68%
11:00 +13°C° 0 mm 5 m/S 753 mmHg 64%
12:00 +13°C° 0 mm 5 m/S 753 mmHg 59%
13:00 +13°C° 0 mm 5 m/S 754 mmHg 55%
14:00 +12°C° 0 mm 5 m/S 754 mmHg 59%
15:00 +11°C° 0 mm 4 m/S 754 mmHg 63%
16:00 +10°C° 0 mm 3 m/S 754 mmHg 67%
17:00 +10°C° 0 mm 3 m/S 755 mmHg 68%
18:00 +9°C° 0 mm 3 m/S 755 mmHg 70%
19:00 +9°C° 0 mm 3 m/S 756 mmHg 71%
20:00 +8°C° 0 mm 3 m/S 756 mmHg 73%
21:00 +8°C° 0 mm 3 m/S 756 mmHg 74%
22:00 +7°C° 0 mm 3 m/S 756 mmHg 76%
23:00 +7°C° 0 mm 3 m/S 756 mmHg 76%

4 November, Mittwoch

Zeit Temperatur Niederschläge Wind Luftdruck Luftfeuchtigkeit
00:00 +7°C° 0 mm 3 m/S 757 mmHg 76%
01:00 +7°C° 0 mm 3 m/S 757 mmHg 77%
02:00 +5°C° 0 mm 3 m/S 757 mmHg 79%
03:00 +5°C° 0 mm 3 m/S 757 mmHg 81%
04:00 +5°C° 0 mm 3 m/S 757 mmHg 83%
05:00 +4°C° 0 mm 3 m/S 757 mmHg 84%
06:00 +4°C° 0 mm 3 m/S 757 mmHg 86%
07:00 +4°C° 0 mm 3 m/S 758 mmHg 88%
08:00 +5°C° 0 mm 3 m/S 758 mmHg 82%
09:00 +6°C° 0 mm 4 m/S 758 mmHg 76%
10:00 +7°C° 0 mm 4 m/S 759 mmHg 71%
11:00 +8°C° 0 mm 4 m/S 759 mmHg 67%
12:00 +8°C° 0 mm 4 m/S 759 mmHg 64%
13:00 +10°C° 0 mm 4 m/S 759 mmHg 61%
14:00 +8°C° 0 mm 4 m/S 759 mmHg 63%
15:00 +9°C° 0 mm 3 m/S 760 mmHg 65%
16:00 +8°C° 0 mm 3 m/S 760 mmHg 68%
17:00 +7°C° 0 mm 3 m/S 760 mmHg 70%
18:00 +7°C° 0 mm 2 m/S 761 mmHg 72%
19:00 +7°C° 0 mm 2 m/S 761 mmHg 74%
20:00 +6°C° 0 mm 2 m/S 761 mmHg 77%
21:00 +6°C° 0 mm 2 m/S 761 mmHg 81%
22:00 +5°C° 0 mm 2 m/S 762 mmHg 84%
23:00 +5°C° 0 mm 2 m/S 762 mmHg 86%

5 November, Donnerstag

Zeit Temperatur Niederschläge Wind Luftdruck Luftfeuchtigkeit
00:00 +5°C° 0 mm 2 m/S 762 mmHg 87%
01:00 +4°C° 0 mm 2 m/S 762 mmHg 88%
02:00 +4°C° 0 mm 2 m/S 762 mmHg 90%
03:00 +4°C° 0 mm 2 m/S 763 mmHg 91%
04:00 +4°C° 0 mm 2 m/S 763 mmHg 92%
05:00 +4°C° 0 mm 2 m/S 763 mmHg 93%
06:00 +3°C° 0 mm 2 m/S 763 mmHg 94%
07:00 +3°C° 0 mm 2 m/S 763 mmHg 95%
08:00 +3°C° 0 mm 3 m/S 764 mmHg 91%
09:00 +4°C° 0 mm 3 m/S 764 mmHg 88%
10:00 +5°C° 0 mm 3 m/S 764 mmHg 85%
11:00 +7°C° 0 mm 3 m/S 764 mmHg 84%
12:00 +7°C° 0 mm 3 m/S 764 mmHg 82%
13:00 +8°C° 0 mm 3 m/S 764 mmHg 81%
14:00 +8°C° 0 mm 3 m/S 764 mmHg 80%
15:00 +8°C° 0 mm 3 m/S 764 mmHg 80%
16:00 +7°C° 0 mm 3 m/S 764 mmHg 80%
17:00 +7°C° 0 mm 3 m/S 764 mmHg 79%
18:00 +6°C° 0 mm 4 m/S 764 mmHg 79%
19:00 +6°C° 0 mm 4 m/S 764 mmHg 79%
20:00 +6°C° 0 mm 4 m/S 764 mmHg 81%
21:00 +6°C° 0 mm 4 m/S 764 mmHg 84%
22:00 +6°C° 0 mm 4 m/S 764 mmHg 86%
23:00 +7°C° 0 mm 3 m/S 764 mmHg 87%
Mehr zeigen

Wir brauchen deine Erlaubnis

Meteoprog und unser Service Anbieter werden persönliche Daten aufbewahren, so wie Cookies, Geräte Bezeichnung oder ähnliche Technologien von deinem Gerät und Prozess, so wie Persönliche Daten Inhalte und Werbungen, genauso wie social Media und den Verkehr zu analysieren.

  • Aufbewahrung und/oder Zugang zu deiner Geräte Informationen.

    Cookies, Geräte Bezeichnung oder andere Informationen, können aufbewahrt oder Zugang zu deinem Gerät erhalten, für den Grund, der oben angegeben wird.

  • Personalisierte Werbung und Inhalte, Messungen, Einblick in das Publikum und Produkt Entwicklung.

    Werbungen und Inhalte können personalisiert werden, basierend auf ein Profil. Mehr Daten können besser personalisierte Werbungen und Inhalte hinzufügen. Werbung und Inhalte können gezeigt und gemessen werden. Einblicke über das Publikum, welche die Werbung gesehen haben und den Inhalt, können abgeleitet werden. So wie Daten können genutzt werden, um es zu verbessern oder die Benutzer Erfahrung zu verbessern das System und die Software.

Wenn du “Ich stimme zu” klickst, erlaubst du uns, die Cookies zu benutzen die Geräte Bezeichnung, den Web oder ähnliche Technologien zu benutzen. Deine Settings, können in deinem Gerät bei deinem Browser geändert werden.

Für den bestimmten Zweck, berechtigten Interessen beruhen darauf, mehr als auf den Inhalt. Du kannst mehr darüber in unseren Privaten und Cookie Politik lesen.